STARLINK-1112, 44925

Orbit data source: Space-Track

STARLINK-1112, 44925 is a payload satellite owned by SpaceX/Seattle (US) in LEO that was launched on Tue, 07 Jan 2020 UTC via an FALCON 9 launch vehicle from the Air Force Eastern Test Range (AFETR). Payload-class satellites include a variety of spacecraft equipped with specific instruments for various scientific and technological missions. These include communications satellites like Starlink; space stations such as the ISS; scientific satellites like the Hubble; Earth observation satellites from companies like Planet Labs, Umbra, and HawkEye 360; GPS; miniature CubeSats for education and research; and military/defense satellites.

Loading next visibility...
Identifier
44925, 2020-001M
Orbit
LEO
Country
Flag of USUS
Related business
Manufacturer
SpaceX/Seattle
Mission
Partially operational Commercial Communications
Bus & Motor
STARLINK, Unknown motor
Mass
260 kg wet, ~248 kg dry
Launch date (UTC)
2020-01-07 (6 years ago)
Launch vehicle
FALCON 9
Launch site
Air Force Eastern Test Range (AFETR)
Object type
Payload
Rocket body
Debris
Shape & HBR
Box + 1 Pan, 10.1 m
Radar Cross Section
13.562 m², Large (>1 m²)

Expand to show TLE details & history
Last TLE update: 8 hours ago

TLE from 8 hours ago
0 STARLINK-1112
1 44925U 20001M   25341.00002315  .00192010  00000-0  20953-2 0  9997
2 44925  53.0491 347.1219 0006187   9.5036 185.6829 15.62221035  5854
Epoch: 2025-12-07T00:00Z
TLE epoch observation values (Epoch: 2025-12-07T00:00:02.000Z)
Latitude
-12.22903°
Longitude
100.42391°
Altitude
388.687 km
Speed
7.675 km/s
True Right ascension
11h 45m 48s
True Declination
-12° 09' 15"
Sunlit
Object was in daylight at epoch
Visualization orbit readout
Latitude
Unknown
Longitude
Unknown
Altitude
Unknown
Speed
Unknown
Apparent Right ascension
Unknown
Apparent Declination
Unknown
Sunlit
N/A
Visualization observer readout
Local Sidereal Time
05:40:13
Azimuth
Unknown
Elevation
Unknown
Doppler factor
Unknown
Orbital elements
Apogee altitude
385.703 km
Perigee altitude
377.339 km
Semi-major axis
6,759.658 km
Eccentricity
0.00062
Inclination
53.0491°
RAAN
347.1219°
Arg. of periapsis
9.5036°
True anomaly
185.67588°
Mean anomaly
185.6829°
Eccentric anomaly
185.67939°
Mean motion
3.90532 °/min
Orbital period
92.18 mins
BSTAR
0.0020953
Loading maneuver chart data...
Computing Atmospheric mass density...

Documentation

Showing up to 5 results
|